YUBILEINY (RS-30) (32953 NORAD) Tracking and Keplerian Element Data

This shows tracking and keplerian element data for the satellite.

Feedback or suggestion? Click here.




ElementValue
Catalog32953
NameYUBILEINY (RS-30)
Epoch Orbit74360
Epoch Day286.8144285
Epoch Year2024
RAAN16.3167
Inclination82.5088
Eccentricity0.0019422
Argument of Perigee205.319
Mean Anonmoly154.694
Mean Motion12.43150475
Decay Rate6.3E-07
L11 32953U 08025A 24286.81442850 .00000063 00000+0 38057-3 0 9995
L22 32953 82.5088 16.3167 0019422 205.3190 154.6940 12.43150475743608



Live tracking and technical data element details for YUBILEINY (RS-30) (NORAD 32953). YUBILEINY (RS-30) can be tracked NOW for your location showing map with azimuth and elevation plus other details from your city location.







IsCatalogInMostPopularTable: catalog: 32953, numindb: 410
Update: records affected: 1



GetName: 32953 YUBILEINY (RS-30)

Hit Count: updated at: Thu, 23 Jan 2025 18:08:15 GMT